Location: Potomac
(46.8816°N, 113.5795°W)
Time: 03:33:13
(UTC+00:00)

JY1SAT - Visible Passes

Search period start: 28 June 2022 00:00
Search period end: 08 July 2022 00:00
Orbit: 566 x 585 km, 97.6° (Epoch: 27 June)

Date Brightness Start Highest point End Pass type
(mag) Time Alt. Az. Time Alt. Az. Time Alt. Az.
28 Jun ? 05:37:58 13° SSW 05:41:15 33° W 05:45:01 10° NNW visible
29 Jun ? 04:06:13 10° SE 04:09:43 27° ENE 04:13:15 10° N visible
29 Jun ? 05:41:38 12° SSW 05:44:53 30° W 05:48:35 10° NNW visible
30 Jun ? 04:09:43 10° SE 04:13:19 29° ENE 04:16:56 10° N visible
30 Jun ? 05:45:17 12° SSW 05:48:32 28° W 05:52:08 10° NW visible
01 Jul ? 04:13:13 10° SE 04:16:54 32° ENE 04:20:37 10° N visible
01 Jul ? 05:48:57 11° SSW 05:52:10 25° W 05:55:39 10° NW visible
02 Jul ? 04:16:45 10° SE 04:20:30 34° ENE 04:24:17 10° N visible
02 Jul ? 05:52:37 11° SSW 05:55:49 23° W 05:59:11 10° NW visible
03 Jul ? 04:20:16 10° SE 04:24:05 37° ENE 04:27:56 10° N visible
03 Jul ? 05:56:17 10° SW 05:59:27 22° W 06:02:42 10° NW visible
04 Jul ? 04:23:47 10° SE 04:27:41 41° ENE 04:31:35 10° N visible
04 Jul ? 06:00:01 10° SW 06:03:06 20° W 06:06:11 10° NW visible
05 Jul ? 04:27:22 10° SE 04:31:16 44° ENE 04:35:14 10° N visible
05 Jul ? 06:03:50 10° SW 06:06:44 18° W 06:09:40 10° NW visible
06 Jul ? 04:31:01 11° SE 04:34:51 48° ENE 04:38:52 10° N visible
06 Jul ? 06:07:39 10° SW 06:10:22 17° W 06:13:06 10° NW visible
07 Jul ? 04:34:40 12° SSE 04:38:27 53° ENE 04:42:29 10° N visible
07 Jul ? 06:11:30 10° SW 06:14:01 16° W 06:16:31 10° NW visible
